Weather History for Jackson, WY

Change the Weather History Date:

Monday, March 4, 2013

  Actual Average Record
Temperature  
Mean Temperature 12 °F -  
Max Temperature 24 °F 34 °F 49 °F (1992)
Min Temperature 0 °F 3 °F -23 °F (1976)
Degree Days  
Heating Degree Days 52    
Moisture  
Dew Point 10 °F    
Average Humidity 80    
Maximum Humidity 100    
Minimum Humidity 46    
Precipitation  
Precipitation 0.00 in - - ()
Sea Level Pressure  
Sea Level Pressure 30.03 in    
Wind  
Wind Speed 6 mph (North)    
Max Wind Speed 14 mph    
Max Gust Speed -    
Visibility 9 miles    
Events      
Averages and records for this station are not official NWS values.
T = Trace of Precipitation, MM = Missing Value Source: NWS Daily Summary

Daily Weather History Graph

Daily Weather History Graph

Search for Another Location

Airport:

Trip Planner

Search our weather history database for the weather conditions in past years. The results will help you decide how hot, cold, wet, or windy it might be!

Date:

Astronomy

Mar. 04, 2013 Rise Set
Actual Time 6:53 AM MST 6:15 PM MST
Civil Twilight 6:25 AM MST 6:44 PM MST
Nautical Twilight 5:52 AM MST 7:17 PM MST
Astronomical Twilight 5:18 AM MST 7:51 PM MST
Moon 1:14 AM MST (3/4) 10:52 AM MST (3/4)
Length of Visible Light 12h 19m
Length of Day
11h 22m
Waning Gibbous, 51% of the Moon is Illuminated
Mar 4
Waning Gibbous
Mar 4
Last Quarter
Mar 11
New
Mar 19
First Quarter
Mar 27
Full

Hourly Weather History & Observations

Time (MST) Temp. Windchill Dew Point Humidity Pressure Visibility Wind Dir Wind Speed Gust Speed Precip Events Conditions
12:15 AM 21.2 °F 10.1 °F 17.6 °F 86% 29.88 in 4.0 mi North 10.4 mph - N/A   Overcast
12:35 AM 19.4 °F 9.5 °F 17.6 °F 93% 29.87 in 5.0 mi North 8.1 mph - N/A   Overcast
12:55 AM 19.4 °F 10.4 °F 17.6 °F 93% 29.88 in 9.0 mi North 6.9 mph - N/A   Overcast
1:15 AM 19.4 °F 10.4 °F 17.6 °F 93% 29.88 in 10.0 mi NNW 6.9 mph - N/A   Overcast
1:35 AM 19.4 °F 10.4 °F 17.6 °F 93% 29.88 in 10.0 mi North 6.9 mph - N/A   Overcast
2:15 AM 19.4 °F - 17.6 °F 93% 29.89 in 10.0 mi Calm Calm - N/A   Overcast
2:35 AM 19.4 °F 14.3 °F 17.6 °F 93% 29.89 in 10.0 mi SW 3.5 mph - N/A   Overcast
2:55 AM 19.4 °F - 17.6 °F 93% 29.89 in - Calm Calm - N/A   Unknown
3:15 AM 17.6 °F - 17.6 °F 100% 29.89 in - Calm Calm - N/A   Overcast
3:35 AM 19.4 °F - 17.6 °F 93% 29.89 in 10.0 mi Calm Calm - N/A   Overcast
3:55 AM 19.4 °F - 17.6 °F 93% 29.90 in 10.0 mi Calm Calm - N/A   Overcast
4:15 AM 19.4 °F - 17.6 °F 93% 29.90 in 2.0 mi Calm Calm - N/A   Overcast
4:35 AM 19.4 °F - 17.6 °F 93% 29.91 in - Calm Calm - N/A   Unknown
4:55 AM 17.6 °F 12.3 °F 17.6 °F 100% 29.91 in 8.0 mi NE 3.5 mph - N/A   Overcast
5:15 AM 17.6 °F - 15.8 °F 93% 29.92 in 10.0 mi Calm Calm - N/A   Overcast
5:35 AM 15.8 °F 6.1 °F 15.8 °F 100% 29.93 in 10.0 mi North 6.9 mph - N/A   Overcast
5:55 AM 12.2 °F -1.0 °F 10.4 °F 92% 29.94 in 10.0 mi North 10.4 mph - N/A   Mostly Cloudy
6:15 AM 12.2 °F -3.1 °F 10.4 °F 92% 29.95 in 10.0 mi North 13.8 mph - N/A   Mostly Cloudy
6:35 AM 12.2 °F -2.5 °F 8.6 °F 85% 29.97 in 10.0 mi North 12.7 mph - N/A   Overcast
6:52 AM 10.4 °F -4.8 °F 6.8 °F 85% 29.97 in 10.0 mi North 12.7 mph - N/A   Mostly Cloudy
7:51 AM 12.2 °F -0.2 °F 6.8 °F 79% 30.00 in 10.0 mi NNW 9.2 mph - N/A   Partly Cloudy
8:54 AM 14.0 °F 2.9 °F 6.8 °F 73% 30.04 in 10.0 mi North 8.1 mph - N/A   Partly Cloudy
9:52 AM 17.6 °F 5.0 °F 6.8 °F 63% 30.05 in 10.0 mi North 11.5 mph - N/A   Partly Cloudy
10:53 AM 19.4 °F 8.6 °F 6.8 °F 58% 30.07 in 10.0 mi North 9.2 mph - N/A   Partly Cloudy
11:52 AM 21.2 °F 12.6 °F 6.8 °F 54% 30.09 in 10.0 mi North 6.9 mph - N/A   Clear
12:51 PM 21.2 °F 10.9 °F 6.8 °F 54% 30.09 in 10.0 mi North 9.2 mph - N/A   Clear
1:51 PM 21.2 °F 14.9 °F 3.2 °F 46% 30.11 in 10.0 mi East 4.6 mph - N/A   Scattered Clouds
2:53 PM 21.2 °F 14.9 °F 3.2 °F 46% 30.12 in 10.0 mi ENE 4.6 mph - N/A   Scattered Clouds
3:54 PM 23.0 °F 18.4 °F 5.0 °F 46% 30.13 in 10.0 mi East 3.5 mph - N/A   Clear
4:54 PM 24.8 °F - 6.8 °F 46% 30.13 in 10.0 mi Calm Calm - N/A   Clear
5:51 PM 21.2 °F - 5.0 °F 50% 30.14 in 10.0 mi Calm Calm - N/A   Clear
7:52 PM 14.0 °F - 6.8 °F 73% 30.17 in 10.0 mi Calm Calm - N/A   Clear
8:52 PM 12.2 °F - 3.2 °F 67% 30.19 in 10.0 mi Calm Calm - N/A   Clear
8:55 PM 10.4 °F 4.0 °F 1.4 °F 67% 30.19 in 10.0 mi North 3.5 mph - N/A   Clear
9:15 PM 8.6 °F -1.3 °F 3.2 °F 79% 30.20 in 10.0 mi North 5.8 mph - N/A   Clear
9:35 PM 6.8 °F -5.9 °F 1.4 °F 79% 30.20 in 10.0 mi North 8.1 mph - N/A   Clear
9:55 PM 3.2 °F -12.2 °F 1.4 °F 92% 30.21 in 10.0 mi North 10.4 mph - N/A   Clear
10:15 PM 1.4 °F -12.5 °F -0.4 °F 92% 30.21 in 10.0 mi NNW 8.1 mph - N/A   Clear
10:35 PM 3.2 °F -10.3 °F -0.4 °F 85% 30.21 in 10.0 mi North 8.1 mph - N/A   Clear
10:55 PM 3.2 °F -11.3 °F -0.4 °F 85% 30.21 in 10.0 mi North 9.2 mph - N/A   Clear
11:15 PM -0.4 °F -12.0 °F -2.2 °F 92% 30.22 in 10.0 mi NE 5.8 mph - N/A   Clear